• Join FlightAware (Why Join?)
  • Login
  • US Flag 
09:52AM EDT


 

Airport Tracker/Info


-or-


 

Live Flight TrackerFlight Track Log ✈ SWA1451 ✈ 03-May-2013 ✈ KDEN - KPHX

Flight Track Log - Related Links

Times and Time Zones

All times are in EDT time to prevent confusion due to time zone crossing. See the SWA1451 flight status page for this flight to view local times or setup timezone preferences in your user account.

Time Position Orientation Groundspeed Altitude Reporting Facility
EDT Latitude Longitude Course Direction KTS MPH feet Rate Location/Type
10:49AM 39.8000 -104.6667 218° Southwest 197 227 7,400  Level Denver TRACON
10:50AM 39.7267 -104.6914 195° South 281 323 9,500 2,580 Climbing Denver Center
10:51AM 39.6322 -104.7300 197° South 339 390 12,600 3,240 Climbing Denver Center
10:52AM 39.5364 -104.7689 197° South 362 417 16,200 3,360 Climbing Denver Center
10:53AM 39.4344 -104.8347 207° Southwest 373 429 19,600 3,000 Climbing Denver Center
10:54AM 39.3394 -104.9092 211° Southwest 397 457 22,400 2,700 Climbing Denver Center
10:55AM 39.4104 -104.5730 218° Southwest  Level FlightAware Approximate
10:55AM 39.2300 -104.9933 211° Southwest 413 475 25,200  Level Denver Center
10:57AM 39.1056 -105.0861 210° Southwest 434 499 28,000 2,160 Climbing Denver Center
10:58AM 38.9894 -105.1603 206° Southwest 456 525 30,200 1,860 Climbing Denver Center
10:59AM 38.8711 -105.2353 206° Southwest 469 540 31,900 1,740 Climbing Denver Center
11:00AM 38.7500 -105.3128 207° Southwest 480 552 33,900 1,740 Climbing Denver Center
11:01AM 38.6286 -105.3900 206° Southwest 482 555 35,600 1,680 Climbing Denver Center
11:02AM 38.4844 -105.4797 206° Southwest 488 562 37,400 1,680 Climbing Denver Center
11:03AM 38.3622 -105.5575 207° Southwest 487 560 39,100 1,200 Climbing Denver Center
11:04AM 38.2511 -105.6281 207° Southwest 477 549 40,000 420 Climbing Denver Center
11:05AM 38.1214 -105.7086 206° Southwest 467 537 40,000  Level Denver Center
11:06AM 38.0122 -105.7814 208° Southwest 464 534 40,000  Level Denver Center
11:07AM 37.9125 -105.9056 225° Southwest 452 520 40,000  Level Denver Center
11:08AM 37.8272 -106.0117 225° Southwest 450 518 40,000  Level Denver Center
11:09AM 37.7283 -106.1383 225° Southwest 453 521 40,000  Level Denver Center
11:10AM 37.6386 -106.2514 225° Southwest 448 516 40,000  Level Denver Center
11:11AM 37.5678 -106.3400 225° Southwest 449 517 40,000  Level Denver Center
11:12AM 37.4542 -106.4814 225° Southwest 449 517 40,000  Level Denver Center
11:13AM 37.3692 -106.5886 225° Southwest 451 519 40,000  Level Denver Center
11:14AM 37.2700 -106.7128 225° Southwest 450 518 40,000  Level Denver Center
11:15AM 37.1847 -106.8169 224° Southwest 447 514 40,000  Level Denver Center
11:16AM 37.0881 -106.9394 225° Southwest 445 512 40,000  Level Denver Center
11:17AM 37.0044 -107.0425 225° Southwest 440 506 40,000  Level Denver Center
11:18AM 36.9069 -107.1631 225° Southwest 440 506 40,000  Level Denver Center
11:19AM 36.8222 -107.2672 225° Southwest 443 510 40,000  Level Denver Center
11:20AM 36.7403 -107.3675 224° Southwest 435 501 40,000  Level Denver Center
11:21AM 36.6431 -107.4853 224° Southwest 436 502 40,000  Level Denver Center
11:22AM 36.5592 -107.5875 224° Southwest 439 505 40,000  Level Denver Center
11:24AM 36.4606 -107.7064 224° Southwest 442 509 40,000  Level Denver Center
11:25AM 36.3622 -107.8264 225° Southwest 441 507 40,000  Level Albuquerque Center
11:26AM 36.2778 -107.9264 224° Southwest 441 507 40,000  Level Denver Center
11:27AM 36.1978 -108.0283 226° Southwest 435 501 40,000  Level Denver Center
11:28AM 36.1044 -108.1467 226° Southwest 429 494 40,000  Level Denver Center
11:29AM 36.0236 -108.2475 225° Southwest 429 494 40,000  Level Denver Center
11:30AM 35.9308 -108.3653 226° Southwest 426 490 40,000  Level Albuquerque Center
11:31AM 35.8503 -108.4650 225° Southwest 425 489 40,000  Level Albuquerque Center
11:32AM 35.7569 -108.5814 225° Southwest 425 489 40,000  Level Albuquerque Center
11:33AM 35.6772 -108.6808 225° Southwest 424 488 40,000  Level Albuquerque Center
11:34AM 35.5975 -108.7792 225° Southwest 423 487 40,000  Level Albuquerque Center
11:35AM 35.5050 -108.8933 225° Southwest 420 483 40,000  Level Albuquerque Center
11:36AM 35.4250 -108.9917 225° Southwest 422 486 40,000  Level Albuquerque Center
11:37AM 35.3333 -109.1036 225° Southwest 418 481 40,000  Level Albuquerque Center
11:38AM 35.2544 -109.2014 225° Southwest 419 482 40,000  Level Albuquerque Center
11:39AM 35.1608 -109.3131 224° Southwest 419 482 40,000  Level Albuquerque Center
11:40AM 35.0825 -109.4111 226° Southwest 420 483 40,000 -660 Level Albuquerque Center
11:41AM 34.9881 -109.5178 223° Southwest 415 478 38,700 -1,740 Descending Albuquerque Center
11:42AM 34.9119 -109.6114 225° Southwest 408 470 36,500 -1,500 Descending Albuquerque Center
11:43AM 34.8214 -109.7194 224° Southwest 407 468 35,600 -960 Descending Albuquerque Center
11:44AM 34.7411 -109.8178 225° Southwest 420 483 34,600 -780 Descending Albuquerque Center
11:45AM 34.6797 -109.9333 237° Southwest 424 488 34,000 -300 Descending Albuquerque Center
11:46AM 34.6247 -110.0808 246° West 428 493 34,000  Level Albuquerque Center
11:47AM 34.5783 -110.2069 246° West 427 491 34,000  Level Albuquerque Center
11:48AM 34.5239 -110.3506 245° Southwest 422 486 34,000 -540 Level Albuquerque Center
11:49AM 34.4786 -110.4700 245° Southwest 413 475 33,000 -1,260 Descending Albuquerque Center
11:50AM 34.4261 -110.6089 245° Southwest 406 467 31,400 -1,860 Descending Albuquerque Center
11:51AM 34.3828 -110.7269 246° West 403 464 29,200 -1,680 Descending Albuquerque Center
11:52AM 34.3261 -110.8344 237° Southwest 389 448 28,000 -1,500 Descending Albuquerque Center
11:54AM 34.2514 -110.9292 226° Southwest 391 450 26,100 -2,160 Descending Albuquerque Center
11:55AM 34.1647 -111.0397 227° Southwest 383 441 23,600 -2,160 Descending Albuquerque Center
11:56AM 34.1017 -111.1219 227° Southwest 372 428 21,700 -1,800 Descending Albuquerque Center
11:57AM 34.0347 -111.2078 227° Southwest 360 414 20,000 -2,040 Descending Albuquerque Center
11:58AM 33.9586 -111.3047 227° Southwest 347 399 17,500 -2,100 Descending Albuquerque Center
11:59AM 33.8903 -111.3917 227° Southwest 332 382 15,700 -1,500 Descending Albuquerque Center
12:00PM 33.8414 -111.4750 235° Southwest 308 354 14,400 -1,500 Descending Albuquerque Center
12:01PM 33.7950 -111.5661 239° Southwest 299 344 12,600 -1,680 Descending Albuquerque Center
12:02PM 33.7503 -111.6500 237° Southwest 299 344 11,000 -1,260 Descending Albuquerque Center
12:03PM 33.7042 -111.7378 238° Southwest 291 335 10,000 -600 Descending Albuquerque Center
12:04PM 33.6594 -111.8189 236° Southwest 292 336 9,800 -480 Descending Albuquerque Center
12:05PM 33.6181 -111.8956 237° Southwest 276 318 9,100 -600 Descending Albuquerque Center
12:06PM 33.5775 -111.9711 237° Southwest 254 292 8,600 -840 Descending Albuquerque Center
12:07PM 33.5414 -112.0400 238° Southwest 246 283 7,400 -1,080 Descending Albuquerque Center
12:08PM 33.5247 -112.1219 256° West 244 281 6,400 -1,320 Descending Albuquerque Center
12:09PM 33.5083 -112.1975 255° West 249 287 4,700 -1,500 Descending Albuquerque Center
12:10PM 33.4486 -112.1864 171° South 216 249 3,300 -1,020 Descending Albuquerque Center
12:11PM 33.4406 -112.1267 99° East 190 219 2,700 -720 Descending Albuquerque Center
12:12PM 33.4406 -112.0739 90° East 145 167 1,900 -780 Descending Albuquerque Center
12:13PM 33.4400 -112.0325 91° East 125 144 1,200 -720 Descending Albuquerque Center